This is the latest recevied weather packets stored in our database for station/object KV4OP. If no packets are shown the sender has not sent any weather packets the latest 10 day(s).
| Time | Temp. | Humidity | Pressure | Rain* | Wind** | Luminosity | Snow |
|---|---|---|---|---|---|---|---|
| 1788192333 | 31.11° C | 70% | 1018.4 hPa | 0 mm | - | - | - |
| 1788192042 | 31.11° C | 71% | 1018.5 hPa | 0 mm | - | - | - |
| 1788191733 | 31.67° C | 70% | 1018.7 hPa | 0 mm | - | - | - |
| 1788191434 | 31.67° C | 70% | 1018.8 hPa | 0 mm | - | - | - |
| 1788191138 | 32.22° C | 69% | 1018.7 hPa | 0 mm | - | - | - |
| 1788190843 | 32.78° C | 71% | 1018.7 hPa | 0 mm | - | - | - |
| 1788190533 | 32.22° C | 69% | 1018.6 hPa | 0 mm | - | - | - |
| 1788190196 | 31.67° C | 72% | 1019 hPa | 0 mm | - | - | - |
| 1788189618 | 32.22° C | 69% | 1018.6 hPa | 0 mm | - | - | - |
| 1788189299 | 31.11° C | 72% | 1018.6 hPa | 0 mm | - | - | - |
| 1788189038 | 31.11° C | 71% | 1018.5 hPa | 0 mm | - | - | - |
| 1788189017 | 31.11° C | 72% | 1018.5 hPa | 0 mm | - | - | - |
| 1788188703 | 30.56° C | 74% | 1018.5 hPa | 0 mm | - | - | - |
| 1788188427 | 30° C | 76% | 1018.5 hPa | 0 mm | - | - | - |
| 1788188114 | 30° C | 76% | 1018.4 hPa | 0 mm | - | - | - |
| 1788187798 | 30° C | 76% | 1018.3 hPa | 0 mm | - | - | - |
| 1788187500 | 30° C | 75% | 1018.3 hPa | 0 mm | - | - | - |
| 1788187216 | 29.44° C | 79% | 1018.3 hPa | 0 mm | - | - | - |
| 1788186918 | 29.44° C | 78% | 1018.3 hPa | 0 mm | - | - | - |
| 1788186609 | 29.44° C | 79% | 1018.4 hPa | 0 mm | - | - | - |
| 1788186334 | 29.44° C | 69% | 1018.4 hPa | 0 mm | - | - | - |
| 1788186043 | 29.44° C | 69% | 1018.3 hPa | 0 mm | - | - | - |
| 1788185734 | 29.44° C | 70% | 1018.3 hPa | 0 mm | - | - | - |
| 1788185434 | 28.89° C | 70% | 1018.4 hPa | 0 mm | - | - | - |
| 1788185133 | 28.89° C | 71% | 1018.4 hPa | 0 mm | - | - | - |
* Rain latest hour (hover to see other rain measurements)
** Current wind speed in m/s (hover to see current wind gust speed)